When you browse on this site, cookies collect data to enhance your experience and personalize the content and advertising you see.
Visit our Privacy Policy to learn more. By continuing to use the site, you agree to this use of cookies and data.
  • In Czech Republic
  • List of Countries
  • For 7 days
  • Water Temperature
  • Weather Map
  • Weather Widgets
  • user-avatar
    Login

    Hourly Weather Benguela

    Today, 19 September, Thursday

    Time Temperature Precipitation Wind Pressure Humidity
    00:00 +23°C° 0 mm 1 mps 759 mmHg 89%
    01:00 +21°C° 0 mm 2 mps 759 mmHg 91%
    02:00 +21°C° 0 mm 2 mps 759 mmHg 91%
    03:00 +21°C° 0 mm 2 mps 759 mmHg 91%
    04:00 +21°C° 0 mm 2 mps 759 mmHg 92%
    05:00 +23°C° 0 mm 1 mps 759 mmHg 86%
    06:00 +24°C° 0 mm 1 mps 759 mmHg 81%
    07:00 +24°C° 0 mm 1 mps 760 mmHg 76%
    08:00 +27°C° 0 mm 1 mps 760 mmHg 66%
    09:00 +29°C° 0 mm 2 mps 759 mmHg 57%
    10:00 +33°C° 0 mm 3 mps 759 mmHg 48%
    11:00 +33°C° 0 mm 4 mps 758 mmHg 48%
    12:00 +33°C° 0 mm 5 mps 757 mmHg 48%
    13:00 +33°C° 0 mm 6 mps 756 mmHg 49%
    14:00 +32°C° 0 mm 6 mps 756 mmHg 51%
    15:00 +32°C° 0 mm 6 mps 756 mmHg 53%
    16:00 +30°C° 0 mm 6 mps 756 mmHg 55%
    17:00 +28°C° 0 mm 5 mps 757 mmHg 66%
    18:00 +25°C° 0 mm 5 mps 757 mmHg 77%
    19:00 +22°C° 0 mm 4 mps 758 mmHg 87%
    20:00 +22°C° 0 mm 3 mps 759 mmHg 88%
    21:00 +23°C° 0 mm 2 mps 759 mmHg 90%
    22:00 +22°C° 0 mm 1 mps 760 mmHg 91%
    23:00 +22°C° 0 mm 1 mps 760 mmHg 91%

    Tomorrow, 20 September, Friday

    Time Temperature Precipitation Wind Pressure Humidity
    00:00 +22°C° 0 mm 1 mps 759 mmHg 92%
    01:00 +21°C° 0 mm 2 mps 759 mmHg 92%
    02:00 +20°C° 0 mm 2 mps 759 mmHg 93%
    03:00 +20°C° 0 mm 2 mps 759 mmHg 94%
    04:00 +20°C° 0 mm 2 mps 758 mmHg 94%
    05:00 +21°C° 0 mm 2 mps 759 mmHg 92%
    06:00 +21°C° 0 mm 2 mps 759 mmHg 89%
    07:00 +23°C° 0 mm 1 mps 760 mmHg 87%
    08:00 +25°C° 0 mm 2 mps 760 mmHg 78%
    09:00 +27°C° 0 mm 3 mps 759 mmHg 69%
    10:00 +28°C° 0 mm 3 mps 759 mmHg 60%
    11:00 +29°C° 0 mm 4 mps 758 mmHg 57%
    12:00 +30°C° 0 mm 4 mps 757 mmHg 55%
    13:00 +30°C° 0 mm 4 mps 757 mmHg 52%
    14:00 +30°C° 0 mm 4 mps 756 mmHg 54%
    15:00 +29°C° 0 mm 4 mps 756 mmHg 56%
    16:00 +28°C° 0 mm 4 mps 756 mmHg 58%
    17:00 +26°C° 0 mm 3 mps 757 mmHg 68%
    18:00 +24°C° 0 mm 2 mps 757 mmHg 78%
    19:00 +21°C° 0 mm 2 mps 758 mmHg 87%
    20:00 +23°C° 0 mm 2 mps 759 mmHg 85%
    21:00 +23°C° 0 mm 2 mps 759 mmHg 83%
    22:00 +23°C° 0 mm 2 mps 760 mmHg 81%
    23:00 +22°C° 0 mm 1 mps 759 mmHg 84%

    Day after tomorrow, 21 September, Saturday

    Time Temperature Precipitation Wind Pressure Humidity
    00:00 +22°C° 0 mm 1 mps 759 mmHg 87%
    01:00 +21°C° 0 mm 1 mps 759 mmHg 89%
    02:00 +21°C° 0 mm 1 mps 759 mmHg 89%
    03:00 +21°C° 0 mm 1 mps 759 mmHg 89%
    04:00 +21°C° 0 mm 1 mps 758 mmHg 89%
    05:00 +22°C° 0 mm 1 mps 759 mmHg 86%
    06:00 +22°C° 0 mm 1 mps 759 mmHg 83%
    07:00 +23°C° 0 mm 1 mps 760 mmHg 80%
    08:00 +25°C° 0 mm 2 mps 760 mmHg 71%
    09:00 +27°C° 0 mm 2 mps 759 mmHg 61%
    10:00 +29°C° 0 mm 3 mps 759 mmHg 52%
    11:00 +29°C° 0 mm 4 mps 759 mmHg 50%
    12:00 +30°C° 0 mm 4 mps 758 mmHg 49%
    13:00 +30°C° 0 mm 5 mps 757 mmHg 48%
    14:00 +29°C° 0 mm 4 mps 757 mmHg 52%
    15:00 +29°C° 0 mm 4 mps 757 mmHg 55%
    16:00 +28°C° 0 mm 4 mps 757 mmHg 58%
    17:00 +26°C° 0 mm 3 mps 757 mmHg 67%
    18:00 +24°C° 0 mm 3 mps 758 mmHg 76%
    19:00 +21°C° 0 mm 2 mps 759 mmHg 85%
    20:00 +21°C° 0 mm 2 mps 759 mmHg 86%
    21:00 +21°C° 0 mm 1 mps 759 mmHg 88%
    22:00 +21°C° 0 mm 1 mps 759 mmHg 89%
    23:00 +21°C° 0 mm 1 mps 759 mmHg 88%

    22 September, Sunday

    Time Temperature Precipitation Wind Pressure Humidity
    00:00 +21°C° 0 mm 1 mps 759 mmHg 86%
    01:00 +22°C° 0 mm 1 mps 759 mmHg 84%
    02:00 +21°C° 0 mm 1 mps 759 mmHg 86%
    03:00 +21°C° 0 mm 1 mps 759 mmHg 88%
    04:00 +18°C° 0 mm 0 mps 759 mmHg 90%
    05:00 +21°C° 0 mm 1 mps 759 mmHg 86%
    06:00 +22°C° 0 mm 1 mps 759 mmHg 82%
    07:00 +23°C° 0 mm 1 mps 760 mmHg 78%
    08:00 +25°C° 0 mm 2 mps 759 mmHg 69%
    09:00 +27°C° 0 mm 2 mps 759 mmHg 60%
    10:00 +29°C° 0 mm 3 mps 759 mmHg 51%
    11:00 +29°C° 0 mm 4 mps 758 mmHg 51%
    12:00 +30°C° 0 mm 4 mps 758 mmHg 51%
    13:00 +30°C° 0 mm 5 mps 757 mmHg 51%
    14:00 +29°C° 0 mm 4 mps 757 mmHg 54%
    15:00 +28°C° 0 mm 4 mps 757 mmHg 57%
    16:00 +27°C° 0 mm 3 mps 757 mmHg 60%
    17:00 +26°C° 0 mm 3 mps 757 mmHg 68%
    18:00 +24°C° 0 mm 2 mps 758 mmHg 77%
    19:00 +22°C° 0 mm 1 mps 759 mmHg 85%
    20:00 +22°C° 0 mm 1 mps 759 mmHg 85%
    21:00 +22°C° 0 mm 1 mps 760 mmHg 85%
    22:00 +22°C° 0 mm 1 mps 760 mmHg 85%
    23:00 +21°C° 0 mm 1 mps 760 mmHg 87%

    23 September, Monday

    Time Temperature Precipitation Wind Pressure Humidity
    00:00 +21°C° 0 mm 1 mps 760 mmHg 89%
    01:00 +20°C° 0 mm 1 mps 759 mmHg 92%
    02:00 +20°C° 0 mm 1 mps 759 mmHg 92%
    03:00 +20°C° 0 mm 1 mps 759 mmHg 91%
    04:00 +20°C° 0 mm 1 mps 759 mmHg 91%
    05:00 +21°C° 0 mm 1 mps 759 mmHg 86%
    06:00 +22°C° 0 mm 1 mps 760 mmHg 81%
    07:00 +23°C° 0 mm 1 mps 760 mmHg 76%
    08:00 +26°C° 0 mm 1 mps 759 mmHg 65%
    09:00 +28°C° 0 mm 2 mps 759 mmHg 55%
    10:00 +31°C° 0 mm 2 mps 759 mmHg 44%
    11:00 +31°C° 0 mm 3 mps 758 mmHg 44%
    12:00 +32°C° 0 mm 4 mps 757 mmHg 44%
    13:00 +33°C° 0 mm 5 mps 756 mmHg 45%
    14:00 +32°C° 0 mm 4 mps 756 mmHg 48%
    15:00 +30°C° 0 mm 4 mps 756 mmHg 51%
    16:00 +29°C° 0 mm 4 mps 756 mmHg 54%
    17:00 +27°C° 0 mm 3 mps 757 mmHg 65%
    18:00 +24°C° 0 mm 2 mps 757 mmHg 76%
    19:00 +22°C° 0 mm 1 mps 758 mmHg 87%
    20:00 +21°C° 0 mm 2 mps 759 mmHg 88%
    21:00 +21°C° 0 mm 2 mps 759 mmHg 89%
    22:00 +20°C° 0 mm 2 mps 759 mmHg 90%
    23:00 +20°C° 0 mm 2 mps 759 mmHg 90%

    24 September, Tuesday

    Time Temperature Precipitation Wind Pressure Humidity
    00:00 +21°C° 0 mm 1 mps 759 mmHg 90%
    01:00 +19°C° 0 mm 0 mps 758 mmHg 90%
    02:00 +18°C° 0 mm 0 mps 758 mmHg 90%
    03:00 +18°C° 0 mm 0 mps 758 mmHg 90%
    04:00 +18°C° 0 mm 0 mps 759 mmHg 91%
    05:00 +19°C° 0 mm 0 mps 759 mmHg 85%
    06:00 +22°C° 0 mm 1 mps 759 mmHg 80%
    07:00 +23°C° 0 mm 1 mps 760 mmHg 75%
    08:00 +25°C° 0 mm 2 mps 759 mmHg 67%
    09:00 +27°C° 0 mm 3 mps 759 mmHg 60%
    10:00 +30°C° 0 mm 4 mps 759 mmHg 52%
    11:00 +30°C° 0 mm 4 mps 758 mmHg 51%
    12:00 +30°C° 0 mm 4 mps 757 mmHg 51%
    13:00 +32°C° 0 mm 5 mps 757 mmHg 50%
    14:00 +30°C° 0 mm 4 mps 757 mmHg 54%
    15:00 +29°C° 0 mm 4 mps 756 mmHg 58%
    16:00 +27°C° 0 mm 4 mps 756 mmHg 62%
    17:00 +26°C° 0 mm 3 mps 757 mmHg 70%
    18:00 +25°C° 0 mm 2 mps 758 mmHg 77%
    19:00 +23°C° 0 mm 1 mps 759 mmHg 85%
    20:00 +23°C° 0 mm 1 mps 759 mmHg 85%
    21:00 +23°C° 0 mm 1 mps 760 mmHg 86%
    22:00 +22°C° 0 mm 1 mps 761 mmHg 86%
    23:00 +22°C° 0 mm 1 mps 760 mmHg 88%
    Show more